Tracking 22100 objects as of 19-Jan-2021
HD Live streaming from Space Station
objects crossing your sky now

STARLINK-1165

Track STARLINK-1165 now!
10-day predictions
STARLINK-1165 is classified as:


NORAD ID: 45059
Int'l Code: 2020-006R
Perigee: 553.4 km
Apogee: 555.3 km
Inclination: 53.1 °
Period: 95.6 minutes
Semi major axis: 6925 km
RCS: Unknown
Launch date: January 29, 2020
Source: United States (US)
Launch site: AIR FORCE EASTERN TEST RANGE (AFETR)
aabbcc
Your satellite tracking list
Your tracking list is empty




NASA's NSSDC Master Catalog

Two Line Element Set (TLE):
1 45059U 20006R   21018.53789189  .00000289  00000-0  38278-4 0  9994
2 45059  53.0593  68.9644 0001401  64.3450 295.7683 15.06401704 53685
Source of the keplerian elements: AFSPC